TimeMST,TemperatureF,Dew PointF,Humidity,Sea Level PressureIn,VisibilityMPH,Wind Direction,Wind SpeedMPH,Gust SpeedMPH,PrecipitationIn,Events,Conditions,WindDirDegrees,DateUTC
12:53 AM,37.9,5.0,25,30.07,10.0,SW,24.2,32.2,N/A,,Clear,220,2013-01-23 07:53:00
1:53 AM,39.0,3.9,23,30.06,10.0,SW,20.7,27.6,N/A,,Clear,230,2013-01-23 08:53:00
2:53 AM,37.9,3.0,23,30.07,10.0,SW,18.4,31.1,N/A,,Clear,220,2013-01-23 09:53:00
3:53 AM,39.0,3.0,22,30.06,10.0,SW,25.3,32.2,N/A,,Clear,220,2013-01-23 10:53:00
4:53 AM,39.0,3.0,22,30.09,10.0,SW,21.9,31.1,N/A,,Clear,220,2013-01-23 11:53:00
5:53 AM,39.9,1.9,20,30.10,10.0,SW,19.6,-,N/A,,Clear,220,2013-01-23 12:53:00
6:53 AM,39.9,1.9,20,30.10,10.0,SW,24.2,34.5,N/A,,Clear,220,2013-01-23 13:53:00
7:53 AM,39.0,3.0,22,30.12,10.0,SW,23.0,31.1,N/A,,Clear,220,2013-01-23 14:53:00
8:53 AM,39.9,3.0,21,30.13,10.0,SSW,23.0,32.2,N/A,,Clear,210,2013-01-23 15:53:00
9:53 AM,42.1,3.9,21,30.12,10.0,SSW,21.9,29.9,N/A,,Clear,210,2013-01-23 16:53:00
10:53 AM,44.1,5.0,20,30.13,10.0,SW,25.3,31.1,N/A,,Clear,220,2013-01-23 17:53:00
11:53 AM,50.0,3.9,15,30.08,10.0,SSW,26.5,34.5,N/A,,Clear,210,2013-01-23 18:53:00
12:53 PM,50.0,5.0,16,30.05,10.0,SSW,23.0,32.2,N/A,,Clear,210,2013-01-23 19:53:00
1:53 PM,50.0,6.1,17,30.04,10.0,SW,23.0,31.1,N/A,,Clear,220,2013-01-23 20:53:00
2:53 PM,48.2,6.8,19,30.06,10.0,SSW,24.2,29.9,N/A,,Clear,210,2013-01-23 21:53:00
3:53 PM,46.0,8.1,21,30.05,10.0,SSW,12.7,-,N/A,,Clear,210,2013-01-23 22:53:00
4:53 PM,44.1,10.0,25,30.07,10.0,SSW,13.8,-,N/A,,Clear,210,2013-01-23 23:53:00
5:53 PM,43.0,10.0,26,30.06,10.0,SW,15.0,-,N/A,,Clear,220,2013-01-24 00:53:00
6:53 PM,41.0,10.0,28,30.07,10.0,SW,15.0,21.9,N/A,,Clear,230,2013-01-24 01:53:00
7:53 PM,43.0,8.1,24,30.02,10.0,SW,26.5,35.7,N/A,,Clear,220,2013-01-24 02:53:00
8:53 PM,42.1,8.1,25,30.03,10.0,SW,19.6,28.8,N/A,,Clear,230,2013-01-24 03:53:00
9:53 PM,39.9,8.1,27,30.04,10.0,SW,10.4,-,N/A,,Clear,230,2013-01-24 04:53:00
10:53 PM,41.0,8.1,26,30.01,10.0,WSW,15.0,-,N/A,,Clear,250,2013-01-24 05:53:00
11:53 PM,39.0,8.1,28,29.99,10.0,SW,19.6,-,N/A,,Clear,230,2013-01-24 06:53:00